Flag for Germany Weather past 2 weeks in Neustrelitz, Mecklenburg-Western Pomerania, Germany

Now
45 °F

Scattered clouds.


Feels Like: 41 °F
Forecast: 33 / 42 °F
Wind: 6 mph from Southwest

Location: Neuruppin

Current Time: Mar 3, 2015 at 5:09:01 PM

Latest Report: Mar 3, 2015 at 3:00 PM


Visibility: 6 mi

Pressure: 29.98 "Hg

Humidity: 59%

Dew point: 31 °F

Location of NeustrelitzLocation

Historic Weather in Neustrelitz — Graph

°F

Neustrelitz temperature yesterday

Maximum temperature yesterday: 44 °F (at 5:00 PM)
Minimum temperature yesterday: 34 °F (at 12:00 AM)
Average temperature yesterday: 40 °F

Past Weeks' High & Low Weather Summary

 TemperatureHumidityPressure
High49 °F (Feb 21, 11:00 AM)100% (Feb 18, 3:00 AM)30.73 "Hg (Feb 18, 3:00 AM)
Low26 °F (Feb 26, 5:00 AM)50% (Feb 26, 2:00 PM)29.35 "Hg (Feb 21, 11:00 AM)
Average36 °F83%29.94 "Hg
* Reported Feb 16 3:00 PM — Mar 3 3:00 PM, Neustrelitz, Weather by CustomWeather, © 2015

Note: Actual official high and low records may vary slightly from our data, if they occured in-between our weather recording intervals... More about our weather records

Advertising

Neustrelitz weather history for previous 24 hours

 ConditionsComfort  
Time TempWeatherWind HumidityBarometerVisibility
3:00 PM
Tue, Mar 3
45 °FScattered clouds.6 mph59%29.98 "Hg6 mi
2:00 PM44 °FOvercast.6 mph64%29.98 "Hg6 mi
1:00 PM42 °FOvercast.6 mph71%29.99 "Hg7 mi
12:00 PM42 °FOvercast.6 mph71%29.99 "Hg6 mi
11:00 AM42 °FPartly sunny.7 mph72%29.98 "Hg6 mi
10:00 AM40 °FSunny.7 mph76%29.97 "Hg6 mi
9:00 AM37 °FSunny.6 mph83%29.94 "Hg6 mi
8:00 AM35 °FSunny.7 mph88%29.92 "Hg6 mi
7:00 AM35 °FOvercast.5 mph95%29.89 "Hg6 mi
6:00 AM33 °FLow clouds.5 mph97%29.87 "Hg1 mi
5:00 AM34 °FLow clouds.6 mph95%29.83 "Hg2 mi
3:00 AM36 °FOvercast.5 mph86%29.78 "Hg6 mi
2:00 AM36 °FOvercast.6 mph84%29.78 "Hg6 mi
1:00 AM36 °FOvercast.6 mph89%29.76 "Hg6 mi
12:00 AM36 °FOvercast.8 mph90%29.74 "Hg6 mi
11:00 PM
Mon, Mar 2
37 °FOvercast.5 mph85%29.70 "Hg6 mi
10:00 PM36 °FPassing clouds.3 mph84%29.68 "Hg6 mi
9:00 PM36 °FClear.2 mph81%29.66 "Hg6 mi
8:00 PM37 °FPassing clouds.3 mph80%29.65 "Hg6 mi
7:00 PM38 °FPassing clouds.3 mph81%29.64 "Hg6 mi
6:00 PM42 °FPassing clouds.3 mph66%29.61 "Hg6 mi
5:00 PM44 °FOvercast.5 mph58%29.57 "Hg6 mi
Weather by CustomWeather, © 2015

See weather overviewHow to use our weather pages